Regional Weather Roundup
Issued by NWS Upton, NY

Current Version | Previous Version | Graphics & Text | Print | Product List | Glossary Off
Versions: 1 2 3 4 5 6 7 8 9 10 11 12 13 14 15 16 17 18 19 20 21 22 23 24 25 26 27 28 29 30 31 32 33 34 35 36 37 38 39 40 41 42 43 44 45 46 47 48 49 50
000 ASUS41 KOKX 030508 RWROKX REGIONAL WEATHER ROUNDUP NATIONAL WEATHER SERVICE NEW YORK NY 1200 AM EST SAT DEC 03 2016 NOTE: "FAIR" INDICATES FEW OR NO CLOUDS BELOW 12,000 FEET WITH NO SIGNIFICANT WEATHER AND/OR OBSTRUCTIONS TO VISIBILITY. NYZ071-072-176-178-NJZ106-104-030600- NEW YORK CITY METRO AREA CITY SKY/WX TMP DP RH WIND PRES REMARKS Central Park CLOUDY 44 29 55 MISG 29.93S Wall St Helipt CLOUDY 45 32 60 W15G22 29.93S Bronx Bot Gard NOT AVBL LaGuardia APRT CLOUDY 46 30 53 W10 29.91S Kennedy INTL MOCLDY 45 29 53 W18 29.93R Breezy Point N/A 43 N/A N/A W15G24 N/A Newark/Liberty CLOUDY 44 30 57 W12 29.93S Teterboro CLOUDY 45 29 53 W12 29.90F $$ NYZ177-179-078>081-030600- LONG ISLAND NEW YORK CITY SKY/WX TMP DP RH WIND PRES REMARKS Jones Beach N/A 43 N/A N/A W18G26 N/A Matinecock PT NOT AVBL Farmingdale CLOUDY 45 29 53 W12G22 29.90S MacArthur/ISP NOT AVBL Shirley NOT AVBL Westhampton MOCLDY 42 28 57 W18 29.87S Southampton NOT AVBL Bridgehampton NOT AVBL East Hampton N/A 43 30 60 W12G20 29.84S Montauk N/A 45 33 63 W16G28 29.83F $$ NYZ052-065-067-030600- HUDSON VALLEY CITY SKY/WX TMP DP RH WIND PRES REMARKS White Plains NOT AVBL Newburgh MOCLDY 41 32 70 W16 29.88S Montgomery CLOUDY 42 29 59 W9 29.87S Poughkeepsie CLOUDY 41 29 62 W12 29.87R Albany CLOUDY 37 30 75 W15G21 29.84S WCI 28 $$ NJZ001-105-106-008-010-013-015-019>022-104-030600- NEW JERSEY CITY SKY/WX TMP DP RH WIND PRES REMARKS Newark/Liberty CLOUDY 44 30 57 W12 29.93S Teterboro CLOUDY 45 29 53 W12 29.90F Caldwell CLOUDY 44 29 55 W9 29.92S Somerville CLOUDY 43 30 60 VRB5 29.94S Linden CLOUDY 43 30 59 W14G22 29.93S Sussex CLOUDY 43 29 57 VRB3 29.90S Andover N/A 41 30 65 VRB3 29.91F Trenton MOCLDY 42 29 59 W7 29.97R Millville MOCLDY 42 31 64 W10 30.04S Atlantic City CLEAR 42 28 57 W12 30.01F Wrightstown MOCLDY 43 29 58 W13 29.95F Toms River CLOUDY 42 30 62 W10 29.99 Belmar CLOUDY N/A N/A N/A W10G21 29.96 $$ PAZ047>061-062-071-030600- EASTERN PENNSYLVANIA CITY SKY/WX TMP DP RH WIND PRES REMARKS Philadelphia MOCLDY 44 29 55 W17 30.02S Allentown PTCLDY 41 29 62 W8 29.96S Scranton LGT RAIN 38 32 79 W9 29.94R WCI 31 $$ CTZ002-004>006-009-010-012-RIZ004-006-007-MAZ004-011-015-030600- SOUTHERN NEW ENGLAND IN CT CITY SKY/WX TMP DP RH WIND PRES REMARKS Bradley INTL MOCLDY 41 29 62 W12 29.81S Hartford CLOUDY 42 30 62 W9 29.83S Danbury CLOUDY 41 27 57 W14G22 29.86S Wtrbury/Oxford CLOUDY 39 27 60 W8G20 29.84S WCI 34 Bridgeport MOCLDY 44 29 55 W10G24 29.86F Meriden CLOUDY 43 29 57 W7 29.84S New Haven PTCLDY 43 30 60 W10G20 29.84F Chester CLOUDY 41 30 65 W8G16 29.82S Groton MOCLDY 44 31 60 W8 29.82 Wilimantic PTCLDY 42 30 62 W9 29.81S IN RI CITY SKY/WX TMP DP RH WIND PRES REMARKS Providence MOCLDY 41 29 62 W16G23 29.77F Block Island CLEAR 44 32 62 W18G30 29.81F Westerly PTCLDY 41 28 60 VRB5 29.82S IN MA CITY SKY/WX TMP DP RH WIND PRES REMARKS Boston CLOUDY 42 30 62 W16 29.73S Worcester CLOUDY 36 27 69 W14 29.73F WCI 27 Westfield CLOUDY 42 28 57 NW13G23 29.80S Provincetown CLOUDY 44 33 65 W20G26 29.72F Nantucket CLEAR 44 30 57 W15G24 29.75F $$ ANZ330-335-338-340-345-350-353-355-030600- COASTAL MARINE OBSERVATIONS STATION/POSITION TIME SKY/WX TEMP WIND PRES VSBY WAVE AIR SEA DIR/SP/G HT/PER (UTC) (F) (DEG/KT/KT) (MB) (MI) (FT/S) NY HARB ENTRANCE 0450 46 54 270/ 25/ 31 1012.6 5/ 4 20 S FIRE ISLAND 0450 47 54 290/ 29/ 35 1011.7 7/ 6 GREAT SOUTH BAY 0430 45 45 N/A 23 SSW MONTAUK P 0450 47 56 270/ 27/ 35 1010.4 7/ 6 15 E BARNEGAT LI 0430 54 N/A 5/ 5 HUDSON CANYON 0350 49 59 1012.5 10/ 7 KINGS POINT 0448 45 49 1012.4 EXECUTION ROCKS 0445 46 270/ 14/ 19 N/A CENTRAL LI SOUND 0415 46 51 290/ 21/ 27 N/A 4/ 5 EASTERN LI SOUND NOT AVBL ROBBINS REEF 0448 44 270/ 19/ 23 1013.3 $$ >>>>>>>>>>>>>>>>>>>>>>>>>>>> KEY <<<<<<<<<<<<<<<<<<<<<<<<<<< > < > SKY/WX - Sky Condition/Present Weather < > TMP - Temperature in Fahrenheit < > DP - Dew Point in Fahrenheit < > RH - Relative Humidity in Percent < > WIND - Direction (from) and Speed in MPH < > PRES - Mean Sea Level Pressure (inches of Hg) < > WCI - Wind Chill Index < > VSB - VISIBILITY IN MILES < > HX - HEAT INDEX < > TC - TEMPERATURE IN CELSIUS < > VRB - VARIABLE WIND DIRECTION < > < >>>>>>>>>>>>>>>>>>>>>>>>>>>> KEY <<<<<<<<<<<<<<<<<<<<<<<<<<<

USA.gov is the U.S. government's official web portal to all federal, state and local government web resources and services.